Location: Unspecified
(0.0000°N, 0.0000°E)
Time: 15:22:50
(UTC+00:00)

deb Explorer IX - Visible Passes

Search period start: 28 September 2016 00:00
Search period end: 08 October 2016 00:00
Orbit: 553 x 1125 km, 38.8° (Epoch: 27 September)

Date Brightness Start Highest point End Pass type
(mag) Time Alt. Az. Time Alt. Az. Time Alt. Az.
28 Sep ? 03:35:26 11° S 03:39:47 19° SE 03:44:22 10° E visible
28 Sep ? 05:20:48 10° SW 05:27:50 89° NW 05:33:52 10° NE visible
28 Sep ? 18:05:58 10° W 18:10:14 31° SW 18:15:09 10° SSE visible
29 Sep ? 03:19:38 18° SSE 03:21:58 21° SE 03:26:57 10° E visible
29 Sep ? 05:02:51 10° SW 05:09:58 82° NW 05:16:09 10° NE visible
30 Sep ? 03:03:54 23° SE 03:04:07 23° SE 03:09:27 10° E visible
30 Sep ? 04:45:38 13° SW 04:52:05 76° NW 04:58:23 10° NE visible
01 Oct ? 02:48:10 23° ESE 02:48:10 23° ESE 02:51:53 10° E visible
01 Oct ? 04:29:54 26° WSW 04:34:10 70° NW 04:40:36 10° NE visible
02 Oct ? 02:32:24 17° E 02:32:24 17° E 02:34:15 10° E visible
02 Oct ? 04:14:08 45° WSW 04:16:14 64° NW 04:22:45 10° NE visible
03 Oct ? 02:16:32 10° E 02:16:32 10° E 02:16:34 10° E visible
03 Oct ? 03:58:16 59° NW 03:58:16 59° NW 04:04:53 10° NE visible
04 Oct ? 03:42:17 42° N 03:42:17 42° N 03:46:58 10° NE visible
05 Oct ? 03:26:10 26° NNE 03:26:10 26° NNE 03:29:00 10° NNE visible
06 Oct ? 03:09:54 15° NNE 03:09:54 15° NNE 03:11:00 10° NNE visible
